GFSCGP_con_sbcape_282.txt.gz
CAPE
0 0 0 0 0 4 47 89 26 161 335 407 304 1 0 0 0 0 0 0 0 0 0 0 0 0 41 51 68 52 47 75 28 10 12 116 343 226 291 433 530 327 88 292
0 0 0 0 0 0 0 0 0 7 307 589 164 105 0 0 0 0 0 0 0 0 0 0 0 0 0 37 50 34 70 28 42 91 0 7 49 47 92 171 344 321 212 263
0 0 0 0 0 0 0 0 0 2 390 64 127 62 20 0 0 0 0 0 0 0 0 0 0 0 0 6 14 10 40 30 49 13 0 18 1 17 0 19 32 199 296 330
0 0 0 0 0 0 0 0 0 0 73 36 0 0 0 17 0 0 0 0 0 0 0 0 0 0 3 3 5 0 0 1 1 3 0 41 72 69 34 5 16 28 92 247
0 0 0 0 0 0 0 0 0 0 0 0 0 0 0 0 4 0 0 0 0 0 0 0 0 0 40 7 0 0 0 0 0 0 53 16 10 0 1 9 26 91 150 202
0 0 0 0 0 0 0 0 0 0 0 0 0 0 0 1 0 11 0 0 0 0 0 2 15 66 69 69 19 33 4 0 13 31 4 2 5 0 0 1 22 41 132 248
0 0 0 0 0 0 0 0 0 0 0 0 0 0 0 0 474 286 0 10 0 0 2 181 425 155 63 114 189 247 275 225 147 161 202 99 12 0 0 0 11 13 51 157
0 0 0 0 0 0 0 0 0 0 0 0 0 0 0 165 373 230 98 33 115 145 187 120 527 389 453 449 408 424 423 540 641 569 356 287 266 247 205 132 88 102 123 169
0 0 0 0 0 0 0 0 0 0 0 0 0 0 0 0 181 319 261 283 223 243 320 98 439 527 369 267 361 631 260 241 183 422 497 527 390 302 290 313 360 476 484 378
0 0 0 0 0 0 0 0 0 0 0 0 0 0 0 0 0 0 0 2 0 0 26 58 539 163 37 47 59 34 34 36 64 42 10 67 54 118 203 325 401 687 512 627
0 0 0 0 0 0 0 0 0 0 0 0 0 0 0 0 0 0 0 0 0 0 0 85 186 70 8 0 0 24 0 0 0 0 0 0 0 0 21 183 246 933 1111 505
0 0 0 0 0 0 0 0 0 0 0 0 0 0 0 0 0 0 0 0 0 0 0 0 0 0 0 0 0 0 0 0 0 0 0 0 0 0 0 0 15 262 644 1179
0 0 0 0 0 0 0 0 0 0 0 0 0 0 0 0 0 0 0 0 0 0 0 0 0 0 0 0 0 0 0 0 0 0 0 0 0 0 0 0 0 10 150 319
0 0 0 0 0 0 0 0 0 0 0 0 0 0 0 0 0 0 0 0 0 0 0 0 0 0 0 0 0 0 0 0 0 0 0 0 0 0 0 0 0 0 0 110
0 0 0 0 0 0 0 0 0 0 0 0 0 0 0 0 0 0 0 0 0 0 0 0 0 0 0 0 0 0 0 0 0 0 0 0 0 0 0 0 0 0 0 0
0 0 0 0 0 0 0 0 0 0 0 0 0 0 0 0 0 0 0 0 0 0 0 0 0 0 0 0 0 0 0 0 0 0 0 0 0 0 0 0 0 0 0 0
0 0 0 0 0 0 0 0 0 0 0 0 0 0 0 0 0 0 0 0 0 0 0 0 0 0 0 0 0 0 2 0 0 0 0 1 4 1 0 0 0 0 0 0
0 0 0 0 0 0 0 0 0 0 0 0 0 0 0 0 0 0 0 0 0 0 0 0 0 0 0 0 0 0 0 0 0 0 0 0 0 0 7 9 0 0 0 0
0 0 0 0 0 0 0 0 0 0 0 0 0 0 0 0 0 0 0 0 0 0 0 0 0 0 0 0 0 0 0 11 0 0 0 0 0 0 0 0 0 0 0 0
0 0 0 0 0 0 0 0 0 0 0 0 0 0 0 0 0 0 0 0 0 0 0 0 0 0 0 0 0 0 4 3 7 0 0 0 0 2 3 4 3 2 0 0
0 0 0 0 0 0 0 0 0 0 0 0 0 0 0 0 0 0 0 0 0 0 0 0 0 0 0 0 0 0 0 0 0 1 1 1 0 0 0 3 2 3 8 7
0 0 0 0 0 0 0 0 0 0 0 0 0 0 0 0 0 0 0 0 0 0 0 0 0 0 0 0 0 0 1 0 0 1 5 8 5 5 6 2 2 0 0 1
0 0 0 0 0 0 0 0 0 0 0 0 0 0 0 0 0 0 0 0 0 0 0 0 0 0 0 0 0 0 0 0 0 2 2 7 5 5 7 4 2 4 2 4
0 0 0 0 0 0 0 0 0 0 0 0 0 0 0 0 0 0 0 0 0 0 0 0 0 0 0 0 0 0 0 0 1 6 6 7 7 6 4 2 2 1 5 5
0 0 0 0 0 0 0 0 0 0 0 0 0 0 0 0 0 0 0 0 0 0 0 0 0 0 0 0 0 0 0 0 2 7 6 7 4 2 2 2 2 3 2 4
0 0 0 0 0 0 0 0 0 0 0 0 0 0 0 0 0 0 0 0 0 0 0 0 0 0 0 0 0 0 0 0 0 2 8 5 12 14 23 13 2 0 0 0

GFSCGP_con_sbcape_285.txt.gz
CAPE
0 0 0 0 286 154 185 24 0 348 634 618 298 185 34 11 25 15 22 64 101 140 150 135 88 202 311 189 235 208 289 547 662 489 440 788 1006 1247 1538 1750 1987 2108 1998 1534
0 0 0 0 0 0 6 0 0 4 661 863 724 555 89 16 12 1 13 29 63 117 77 17 61 171 310 457 475 483 436 705 792 678 803 986 1201 1292 1413 1565 1797 1980 2014 1783
0 0 0 0 0 0 0 0 0 55 780 136 772 660 227 79 34 15 8 1 3 20 32 8 16 79 195 410 732 744 796 900 912 974 993 1033 953 1080 1056 1193 1275 1385 1702 1760
0 0 0 0 0 0 0 0 0 620 776 317 0 0 8 106 96 73 64 36 19 0 0 0 0 75 137 309 588 808 981 1069 1106 1158 1099 1290 1119 1068 984 1231 1116 1368 1351 1526
0 0 0 0 0 0 0 0 0 8 0 0 0 6 0 21 34 172 99 69 74 36 0 0 37 107 145 225 452 660 921 1037 1058 913 1271 1258 1239 1036 940 813 1008 1156 1479 1343
0 0 0 0 0 0 0 0 0 0 0 0 0 0 0 23 2 317 359 50 100 93 5 8 29 216 311 293 259 538 654 779 814 723 888 935 1074 1176 914 980 875 721 721 903
0 0 0 0 0 0 0 0 0 0 0 0 0 0 0 0 718 861 933 580 219 283 281 362 301 338 606 562 530 552 764 852 748 608 635 735 750 864 915 1122 812 912 741 751
0 0 0 0 0 0 0 0 0 0 0 0 0 0 0 264 654 513 444 412 387 467 654 781 844 710 658 634 662 652 598 378 679 1105 1241 1052 1188 1188 1170 1192 1205 1127 1075 1091
0 0 0 0 0 0 0 0 0 0 0 0 1 0 0 0 0 612 542 499 576 570 637 858 898 660 498 589 902 769 604 666 442 523 964 649 863 1267 1265 1081 888 701 922 1030
0 0 0 0 0 0 0 0 0 0 0 0 0 0 0 0 0 36 421 448 531 530 777 806 409 237 212 161 30 0 6 21 8 0 0 0 0 5 16 88 194 139 272 1089
0 0 0 0 0 0 0 0 0 0 0 0 0 0 0 0 0 0 21 92 110 508 323 65 85 0 0 0 0 0 0 0 0 0 8 2 0 0 0 0 0 0 6 48
0 0 0 0 0 0 0 0 0 0 0 0 0 0 0 0 0 2 0 0 0 0 0 0 0 0 0 0 0 0 0 0 0 0 0 0 0 0 0 0 0 0 0 0
0 0 0 0 0 0 0 0 0 0 0 0 0 0 0 0 0 1 0 0 0 0 0 0 0 0 0 0 0 0 0 0 0 0 0 0 0 0 0 0 0 0 0 0
0 0 0 0 0 0 0 0 0 0 0 0 0 0 0 0 0 0 0 0 0 0 0 0 0 0 0 0 0 0 0 0 0 0 0 0 0 0 0 0 0 0 0 0
0 0 0 0 0 0 0 0 0 0 0 0 0 0 0 0 0 0 0 0 0 0 0 0 0 0 0 0 0 0 0 0 0 0 0 0 0 0 0 3 7 7 2 0
0 0 0 0 0 0 0 0 0 0 0 0 0 0 0 0 0 0 0 0 0 0 0 0 0 0 0 0 0 0 0 0 0 0 0 0 0 0 0 1 6 13 22 29
0 0 0 0 0 0 0 0 0 0 0 0 0 0 0 0 0 0 0 0 0 0 0 0 0 0 0 0 0 0 0 0 0 0 0 0 1 0 1 2 4 9 22 25
0 0 0 0 0 0 0 0 0 0 0 0 0 0 0 0 0 0 0 0 0 0 0 0 0 0 0 0 0 0 0 0 0 1 2 1 4 5 6 9 7 8 8 15
0 0 0 0 0 0 0 0 0 0 0 0 0 0 0 0 0 0 0 0 0 0 0 0 0 0 0 0 0 0 1 2 9 12 16 17 11 13 19 22 24 8 19 15
0 0 0 0 0 0 0 0 0 0 0 0 0 0 0 0 0 0 0 0 0 0 0 0 0 0 0 0 0 1 3 7 15 22 26 35 36 45 72 66 50 49 37 42
0 0 0 0 0 0 0 0 0 0 0 0 0 0 0 0 0 0 0 0 0 0 0 0 0 0 0 0 0 0 1 4 13 20 21 19 39 20 26 38 15 10 31 45
0 9 0 0 0 0 0 0 0 0 0 16 9 4 0 0 0 0 0 0 0 0 0 0 0 0 0 0 0 0 0 0 0 7 12 14 5 5 6 7 7 11 14 15
2 0 0 0 0 0 0 0 0 0 7 7 21 0 0 0 0 0 0 0 0 0 0 0 0 0 0 0 0 0 0 0 0 0 0 0 3 6 12 11 10 5 6 7
0 0 0 0 0 0 0 0 0 0 3 6 10 0 0 0 0 0 0 0 0 0 0 0 0 0 0 0 0 0 0 0 0 0 0 0 20 15 6 13 15 13 3 4
0 0 0 0 0 0 0 0 0 0 0 0 0 0 0 0 0 0 0 0 0 0 0 0 0 0 0 0 0 1 7 23 38 29 2 7 45 20 14 14 10 5 4 2
0 0 0 0 0 7 0 0 0 7 0 0 0 0 0 0 0 0 0 0 0 0 0 0 0 0 0 0 0 14 27 43 46 83 8 19 34 30 23 24 14 3 0 0

GFSCGP_con_sbcape_291.txt.gz
CAPE
0 0 23 237 282 373 111 109 257 538 320 312 391 350 146 2 60 60 72 65 100 146 294 297 306 265 304 554 895 1031 879 903 929 1083 1144 1134 1329 1567 1733 1789 1980 2451 2032 1630
0 11 10 0 4 0 23 174 107 293 523 542 624 621 506 110 10 23 63 194 112 101 211 284 421 523 480 438 688 935 957 1080 1225 1098 1158 1051 2157 2577 2551 1302 1934 2009 2422 1678
14 4 0 0 0 0 2 15 42 59 441 690 77 752 729 582 228 6 21 105 170 137 211 508 485 557 617 843 817 800 893 1002 1236 1117 825 1137 1800 2010 1083 1207 1051 1489 1914 1760
101 9 0 0 0 0 49 6 4 307 402 382 759 111 17 771 914 505 20 49 86 308 359 401 476 567 660 765 1028 1178 1479 1360 1389 1532 1781 1928 1726 1113 1226 889 2061 1260 1045 1208
13 114 0 0 0 0 2 0 0 67 237 279 62 219 247 478 941 861 697 79 36 60 260 295 138 589 584 835 1122 1354 1892 2666 2797 2121 2942 1569 2215 2030 1795 1189 1619 1460 1875 1964
0 0 0 0 0 0 0 0 0 50 58 229 79 123 366 521 613 697 839 680 175 49 133 297 353 397 681 790 678 1378 2237 2566 2575 2332 2231 2261 1681 1460 1240 1438 2363 1304 1093 1339
0 0 0 0 0 0 0 2 14 22 19 15 39 17 371 741 1031 745 674 970 737 427 216 297 592 717 880 780 928 1145 2458 2112 1737 1786 1749 1848 1809 1771 2105 2733 2046 2146 2572 2110
0 1 0 0 0 1 0 0 27 71 97 70 4 18 681 930 909 825 945 863 1073 560 457 494 621 773 1134 1482 1360 1729 1990 2106 1433 721 999 1458 1064 2097 1862 1500 2279 2435 2623 2492
0 0 0 0 0 0 0 0 6 17 8 15 44 232 639 781 1015 1188 1097 1280 1071 843 810 1193 1434 1210 1648 1674 1617 483 211 16 0 12 66 160 34 36 1 0 21 0 19 0
0 0 0 0 0 0 0 1 1 0 3 4 16 21 545 776 1058 1463 1543 1925 1683 787 550 378 282 157 121 41 25 1 3 0 0 0 9 124 330 255 242 158 35 4 104 185
0 0 1 0 0 0 0 0 0 2 5 4 1 256 718 732 1153 1389 1173 283 39 218 83 1 2 2 2 2 0 0 0 0 0 0 0 0 0 35 73 24 112 71 158 306
0 0 0 0 0 0 0 0 0 11 0 0 0 99 359 747 1532 624 41 0 0 0 0 1 8 12 8 4 0 0 0 0 0 0 0 0 0 0 0 26 3 0 18 26
0 0 0 41 4 0 0 0 0 0 0 5 17 287 493 1203 1068 648 185 0 2 1 0 0 0 0 0 0 0 0 0 0 0 0 0 0 0 0 0 0 0 0 0 0
0 0 2 89 95 40 0 0 0 0 2 8 7 378 601 1037 350 26 1 0 0 0 0 0 0 0 0 0 0 0 0 0 0 0 0 0 0 0 0 0 0 0 0 0
0 0 64 73 33 10 34 28 9 2 1 5 10 57 484 1088 476 73 0 0 0 0 0 0 0 0 0 0 0 0 0 0 0 0 0 0 0 0 0 7 2 2 3 4
17 125 161 112 5 0 0 0 0 0 0 0 0 0 576 929 611 198 28 0 0 0 0 0 0 0 0 0 0 0 0 0 0 0 0 0 0 0 0 0 1 6 10 19
152 125 247 192 81 52 34 61 30 20 13 5 15 248 492 815 621 267 9 0 0 0 0 0 0 0 0 0 0 0 0 0 0 0 0 0 1 1 3 5 8 9 21 43
397 394 195 138 145 205 260 71 17 12 1 9 0 130 271 488 377 111 3 0 0 0 0 0 0 0 0 0 0 0 0 0 0 0 0 0 0 0 3 4 15 30 24 30
243 222 226 177 288 181 154 15 0 1 53 21 0 39 130 178 181 12 0 0 0 0 0 0 0 0 0 0 0 0 0 0 0 0 1 5 10 13 9 5 10 21 15 45
17 127 170 161 14 41 279 0 0 0 16 0 31 77 128 116 142 101 0 0 0 0 0 0 0 0 0 0 0 0 1 4 4 6 8 14 15 18 23 21 52 45 42 90
137 141 90 14 109 118 2 0 0 4 150 0 5 36 68 144 219 122 16 0 0 0 0 0 0 0 0 0 0 4 13 22 14 13 19 17 25 72 98 64 83 99 96 85
17 94 196 322 210 112 0 0 2 186 35 0 0 3 7 146 109 5 0 0 0 0 0 0 0 0 0 0 4 14 25 34 43 41 38 61 129 145 123 261 219 186 152 129
240 405 489 448 405 52 0 36 103 3 0 0 0 3 52 112 70 7 0 0 0 0 0 0 0 0 0 8 14 32 47 77 100 54 139 160 214 335 354 346 149 85 80 127
253 166 21 122 25 24 0 93 84 1 0 0 0 0 91 141 152 60 0 0 0 0 0 0 0 0 1 12 14 43 73 108 125 99 223 157 239 218 172 147 98 94 71 45
178 95 44 133 195 18 0 5 9 22 9 8 0 0 42 100 175 83 45 20 0 0 0 0 0 0 7 22 67 80 134 179 183 132 45 68 77 107 163 184 93 102 164 36
80 5 100 210 238 67 132 38 0 0 23 58 46 73 86 126 181 98 96 9 0 0 0 0 0 15 86 145 168 246 297 331 312 148 78 81 70 61 88 69 71 11 0 0

GFSCGP_con_sbcape_294.txt.gz
CAPE
0 1 63 168 205 105 126 238 248 492 184 32 218 0 0 31 49 42 59 66 53 236 150 164 305 263 615 678 869 1325 1905 2726 1951 2285 1897 2215 2089 2346 1494 1249 2798 3363 2181 2045
0 8 14 85 110 0 10 67 264 359 300 449 419 5 22 2 69 46 67 36 123 289 269 275 384 417 452 895 1285 1921 1617 2475 2026 2089 2832 1871 2713 2119 3053 2429 576 1330 2090 2037
2 16 0 13 1 3 3 8 180 398 231 15 96 20 331 86 51 11 104 120 61 303 326 492 716 552 472 932 1359 1648 2088 2343 2186 2714 2650 2897 2941 3264 1332 2577 1107 938 1610 3080
48 8 0 0 0 0 0 22 40 142 153 457 47 152 44 798 281 33 31 97 182 226 588 599 642 810 515 788 884 1650 1992 2455 2230 2917 2502 3112 2433 2330 2232 1067 960 679 1393 522
3 8 65 0 0 0 0 0 0 1 56 370 159 347 171 737 553 81 39 88 124 437 284 411 234 587 725 960 1100 1536 1935 2250 2525 2487 3087 2668 1962 1433 1644 1315 174 251 618 2239
0 1 0 79 0 0 0 0 0 0 18 74 420 324 313 670 874 944 297 164 231 417 477 505 603 571 657 808 986 1529 1981 2100 2556 3317 2460 1672 1550 1793 1483 1166 240 213 582 844
0 0 0 0 0 0 0 0 0 0 1 0 0 291 539 18 19 466 88 373 247 257 261 767 799 400 1089 744 1145 1538 1009 110 1313 2120 2227 991 1562 1425 1570 1993 1437 1040 1172 1526
0 0 0 0 0 0 0 0 0 54 12 13 35 454 681 854 702 697 718 834 519 257 189 191 390 675 1192 1154 1757 1983 1535 889 1223 1539 689 313 252 350 178 0 42 520 555 388
0 0 0 18 0 0 0 1 0 0 0 12 0 814 1046 922 584 481 353 1025 1084 1190 1077 1554 1776 1693 973 736 664 549 391 684 429 436 518 84 184 274 310 211 407 58 118 1
0 0 0 0 0 0 0 0 0 0 5 2 8 398 290 943 810 1667 1661 1387 1151 583 616 523 437 136 461 148 121 1 0 3 0 162 37 17 31 207 203 191 608 418 284 316
0 0 0 0 0 0 0 0 0 0 4 41 26 478 1163 1076 1243 1420 702 535 312 270 60 9 1 0 0 0 0 0 0 0 0 0 0 0 0 0 0 0 0 0 3 8
0 0 0 0 0 0 0 0 0 13 21 0 0 298 1130 1761 1508 1145 97 4 2 4 9 9 7 3 0 0 0 0 0 0 0 0 0 0 0 0 0 0 0 0 0 0
0 0 0 0 2 0 0 0 0 0 0 12 24 515 1844 1672 1366 789 244 3 1 0 0 0 0 0 0 0 0 0 0 0 0 0 0 0 0 0 0 0 0 0 0 0
0 0 0 0 75 51 3 0 0 0 0 0 14 1437 1673 1382 917 458 38 3 1 0 0 0 0 0 0 0 0 0 0 0 0 0 0 0 0 0 0 0 0 0 0 0
0 0 0 1 37 9 6 0 2 0 0 0 75 14 1678 1139 346 92 6 1 0 0 0 0 0 0 0 0 0 0 0 0 0 0 0 0 0 0 0 0 1 0 0 0
0 23 0 69 9 23 20 15 0 0 0 0 0 686 1597 673 137 13 2 0 0 0 0 0 0 0 0 0 0 0 0 0 0 0 0 0 0 0 0 0 0 0 0 0
5 41 268 195 96 27 0 9 3 0 3 2 0 1083 1107 568 324 288 70 2 0 0 0 0 0 0 0 0 0 0 0 0 0 0 0 0 0 2 7 8 8 2 3 9
315 442 392 182 36 155 314 77 7 29 4 0 0 36 1198 773 374 316 53 0 0 0 0 0 0 0 0 0 0 0 0 0 0 6 1 4 16 21 22 17 11 2 9 0
191 260 299 258 267 183 49 32 5 0 311 77 47 113 775 665 497 75 4 0 0 0 0 0 0 0 0 0 0 0 0 0 6 12 21 9 13 14 15 19 20 14 38 13
202 289 254 194 372 82 209 46 0 0 152 34 151 169 277 280 418 178 5 0 0 0 0 0 0 0 0 0 0 0 11 11 21 24 20 24 52 62 63 77 103 97 83 84
189 185 103 100 194 137 194 34 0 0 400 50 78 208 283 345 416 253 21 8 0 0 0 0 0 0 3 4 15 14 27 26 47 72 137 168 190 215 174 170 181 143 127 98
187 177 368 355 429 397 103 18 201 519 105 9 35 55 644 514 414 268 37 7 0 0 0 0 0 0 2 12 25 118 181 255 246 328 273 268 342 192 79 178 134 171 128 133
205 650 487 401 586 268 61 240 112 24 26 0 0 1 83 524 205 81 68 0 0 0 0 0 0 0 1 28 124 168 425 477 529 447 409 400 381 219 190 223 201 147 171 45
71 385 69 319 416 218 66 41 14 0 0 0 0 0 0 107 467 332 409 238 107 0 0 0 0 2 53 107 242 352 462 588 523 415 332 371 177 163 242 143 128 158 51 49
180 167 46 136 463 97 3 0 10 30 0 0 0 0 0 12 86 553 412 370 225 216 75 7 109 160 184 475 587 570 604 673 344 376 284 160 109 180 104 147 220 141 182 69
89 107 68 337 640 179 305 60 0 0 0 0 0 0 3 9 69 282 257 646 297 38 192 395 367 469 582 688 705 844 1028 908 664 452 212 151 125 126 78 114 36 9 0 0

GFSCGP_con_sbcape_297.txt.gz
CAPE
0 0 265 83 1 0 65 45 105 132 65 44 54 18 3 0 0 0 0 0 22 14 97 91 378 343 706 756 700 439 923 685 1234 1135 1064 1034 1583 1327 747 821 933 647 881 966
0 0 2 152 11 0 162 132 294 267 388 141 123 150 36 23 9 1 0 0 23 45 58 90 304 427 488 668 571 336 1318 853 1315 971 946 1201 1901 955 1351 599 243 382 310 601
35 3 324 445 170 79 372 296 341 476 404 120 6 12 19 4 111 7 8 10 69 75 60 129 331 479 317 435 587 1046 1112 959 806 666 1425 1480 1656 1480 1234 799 815 851 1206 614
122 19 13 3 26 159 20 165 377 294 147 80 74 27 0 0 11 0 57 41 62 165 145 172 250 328 522 752 855 1224 1253 995 650 1066 1259 1414 1261 989 848 579 552 290 457 608
37 0 4 28 0 0 0 0 193 505 513 2 11 0 0 0 0 0 7 28 143 251 295 357 333 300 542 774 875 1037 1269 1048 791 1264 1438 1343 1254 871 596 127 2 67 21 229
0 0 0 2 0 0 0 0 0 0 53 385 121 150 12 52 0 36 35 25 83 367 278 337 456 474 553 715 848 1089 1129 1017 1077 1281 1319 1112 729 1103 656 683 465 309 325 302
0 0 0 0 0 0 0 0 0 0 0 0 139 170 156 115 186 618 649 338 78 277 440 418 338 604 588 835 1055 989 560 358 278 496 79 414 422 389 372 225 475 40 6 578
0 0 0 0 0 0 0 0 0 0 0 0 205 532 489 244 493 462 259 185 166 68 423 532 863 1335 1326 1125 510 52 0 0 216 1 0 0 0 0 0 0 0 84 15 15
0 0 0 0 0 0 0 0 0 0 0 0 558 719 479 398 245 108 104 0 80 1316 1349 831 822 643 418 406 410 49 242 29 17 0 0 9 20 0 12 5 0 4 0 10
0 0 0 0 0 0 0 0 0 0 0 0 210 1068 1007 769 728 501 424 657 335 173 156 295 50 105 75 39 84 0 0 0 0 0 0 0 0 0 0 0 0 0 0 0
0 0 0 0 0 0 0 0 0 0 0 0 0 633 957 1431 1009 597 379 213 110 69 0 0 0 0 0 0 0 0 0 0 0 0 0 0 0 0 0 0 0 0 0 0
0 0 0 0 0 0 0 0 0 0 0 0 2 1126 1378 639 420 157 146 89 33 13 2 0 0 0 0 0 0 0 0 0 0 0 0 0 0 0 0 0 0 0 0 0
0 0 0 0 0 0 0 0 0 0 0 0 1 1056 1055 454 2 7 16 1 1 0 0 0 0 0 0 0 0 0 0 0 0 0 0 0 0 0 0 0 0 0 0 0
0 0 0 0 0 0 8 1 0 0 0 0 852 1396 798 653 162 103 2 1 0 0 0 0 0 0 0 0 0 0 0 0 0 0 0 0 0 0 0 0 0 0 0 0
0 0 0 0 0 0 7 4 0 0 0 3 1387 1430 1160 488 100 10 0 1 1 0 0 0 0 0 0 0 0 0 0 0 0 0 0 0 0 0 0 0 0 0 0 0
0 0 0 0 71 12 19 25 2 0 0 970 917 707 361 118 43 0 0 0 0 0 0 0 0 0 0 0 0 0 0 0 0 0 0 0 0 0 0 0 0 0 0 0
28 16 35 35 92 14 71 29 0 0 0 381 1055 757 250 159 140 33 15 1 0 0 0 0 0 0 0 0 0 0 0 0 0 0 0 0 0 0 0 0 0 0 0 0
41 100 326 178 107 171 66 91 10 78 30 101 1302 984 546 422 367 244 48 0 0 0 0 0 0 0 0 0 0 0 0 0 0 0 0 0 0 0 0 0 0 0 0 0
1 52 516 303 225 107 354 151 8 3 23 75 1457 1443 1030 545 558 325 16 0 0 0 0 0 0 0 0 0 0 0 0 0 0 0 0 1 0 0 0 0 0 0 0 0
4 108 203 417 276 33 49 49 104 0 0 136 388 859 1160 696 295 6 0 0 0 0 0 0 0 0 0 0 0 0 0 0 0 0 8 4 0 0 0 0 0 0 8 0
160 201 94 143 228 185 104 3 172 1 83 137 289 519 330 165 30 0 0 0 0 0 0 0 0 0 0 0 0 0 0 0 0 8 2 9 2 2 2 23 30 34 39 35
271 185 172 418 338 364 6 187 443 107 38 10 159 311 18 0 0 0 0 0 0 0 0 0 0 0 0 0 0 0 0 1 30 44 54 33 20 43 65 39 39 60 70 54
162 15 1 3 292 314 205 262 139 173 1 0 2 326 284 88 6 0 0 0 0 0 0 0 0 0 0 0 0 0 21 115 122 109 28 22 39 41 54 70 79 102 93 57
36 37 45 218 223 0 0 4 0 0 0 0 0 0 50 38 5 0 0 0 0 0 0 0 0 0 0 2 88 185 123 149 244 106 15 30 43 51 38 18 64 105 76 36
1 173 56 387 260 68 108 34 3 0 0 0 0 0 0 90 86 18 3 0 0 0 0 0 0 0 0 11 250 371 475 525 336 169 62 52 24 23 18 39 45 26 12 18
134 181 5 472 308 194 131 70 125 43 0 0 0 0 0 1 27 0 1 7 3 3 0 0 0 0 1 121 356 471 527 655 399 274 146 33 26 38 49 32 3 0 6 7